Vertical_Velocity
0 1 1 -19 2 -4 8 8 -6 -8 14 8 -4 2 17 -1 -1 -2 -7 -1 -10 -11 -9 -5 -2 6 5 4 6 6 5 -2 -1 -3 -4 3 -2 -3 -0 2 5 -1 -2 -0
1 -5 -25 21 7 2 3 3 -21 -15 -9 39 9 -21 13 -2 -14 -1 0 -3 1 3 1 -6 -1 1 6 2 6 21 8 -3 -1 -2 3 14 4 5 0 2 8 3 1 -1
11 -36 10 6 4 12 -2 0 -6 -11 2 14 15 -34 -15 -14 -9 3 3 -8 2 6 12 17 -7 -0 -6 -8 -1 1 9 6 -2 -1 -2 2 -3 1 -6 -7 -1 6 1 0
-25 -1 -8 1 -11 23 -4 13 11 1 21 -4 1 -11 -18 3 -4 -4 2 7 11 26 7 13 10 6 -3 -4 -4 0 2 -2 10 7 1 6 4 -6 -5 4 2 11 7 0
-40 -8 9 -10 -1 16 -49 13 9 18 -3 13 -2 2 -33 7 -4 1 34 3 7 5 8 1 4 2 -0 1 3 -2 -1 -1 6 -4 19 5 7 7 8 1 -3 -4 7 5
-17 6 5 -8 2 4 16 -5 11 17 5 8 -2 1 -12 5 -10 17 8 5 11 5 7 2 4 1 0 2 -1 4 -2 0 -1 -5 -4 -0 19 14 11 -0 -3 -3 4 5
3 1 -3 2 6 1 6 4 -1 1 2 -5 4 11 -19 8 14 15 7 6 -5 4 3 3 1 2 4 3 4 1 2 -5 -2 -3 -2 -8 -4 4 -4 13 -1 -3 3 -3
-1 -15 11 5 -14 -12 -1 17 -8 -5 -2 -4 8 -3 0 16 14 32 11 6 15 6 1 1 -2 -0 -1 -1 -0 2 5 5 2 -8 -4 3 -5 1 1 2 3 1 3 6
2 -3 6 6 2 11 -10 -0 4 4 4 0 -0 13 6 20 7 -6 20 1 7 3 6 8 1 -3 -2 -2 -2 -1 -1 -2 7 9 1 -4 -5 2 1 -1 6 -2 6 2
8 -8 -2 2 11 -3 -10 12 5 2 -1 -1 2 2 5 0 7 -3 12 1 6 -1 7 4 -4 -2 -5 -7 -4 -1 0 2 -1 5 10 5 -2 1 7 1 6 -7 3 1
0 8 -27 -20 5 7 16 6 6 -1 -0 0 0 6 13 6 5 -5 3 6 -1 -3 3 1 -2 -9 -9 -9 -8 -2 -0 1 1 3 6 5 -1 -4 13 1 4 -4 3 2
2 -8 -6 9 -5 5 3 6 6 -3 -0 2 -4 2 22 4 2 1 6 -4 -13 -17 13 -5 -8 -5 -2 -4 -4 -3 -1 -2 1 -2 -3 -3 3 -1 4 5 5 1 6 1
3 3 -1 -4 -20 -4 -0 3 5 1 -5 3 -4 8 -2 9 -9 -7 1 -9 14 -26 20 -1 -8 -1 1 -0 -5 -5 -1 -0 -1 -4 -3 -1 4 1 2 7 4 3 6 9
6 2 4 1 0 3 9 -9 1 4 -10 14 -0 -3 12 0 4 9 3 3 -3 8 0 -0 -1 -1 -0 -2 -5 -1 0 -0 0 7 1 -1 1 4 2 6 3 6 7 -3
-2 1 -1 1 25 -2 11 5 18 4 -10 -6 9 3 5 8 6 6 8 19 12 -3 -2 -1 -6 0 -1 -3 -2 1 -3 1 -3 1 -1 6 -1 5 2 7 4 -1 13 -19
-5 4 1 10 25 -1 -5 4 10 8 9 2 2 -3 15 -1 -3 3 -0 1 -3 -0 -1 -7 -2 -0 -2 1 -1 -2 -1 -1 5 -10 10 2 13 3 0 -5 -5 0 18 6
2 -1 -8 1 13 -3 -24 11 -7 1 -4 -3 -2 7 9 4 7 9 6 -5 -1 -4 -5 4 3 1 6 2 -3 -4 -3 -7 -3 0 -1 -3 -1 0 -1 26 3 4 -2 18
-1 -2 4 -5 -4 -6 15 17 5 -10 -0 3 3 3 -0 -3 -3 -4 -8 1 4 2 7 4 1 -8 -6 -5 -0 0 1 -1 -3 -2 -1 1 5 5 -11 3 -6 -9 -4 10
-0 4 1 -2 -2 1 3 -2 -3 3 2 1 -3 -0 3 5 1 3 -0 1 3 2 -4 -5 -1 1 3 -1 -3 -1 -0 -4 -0 -1 1 -2 7 4 5 11 35 6 43 16
4 -1 -1 0 -3 0 4 2 2 -3 -3 3 8 0 0 3 7 2 -1 0 -2 -1 0 7 -3 -1 -4 -4 -2 1 -2 -8 -2 1 3 -3 -8 -6 6 -2 15 -4 11 40
-3 -3 -7 2 -0 3 2 3 7 -0 2 0 1 3 4 7 3 -1 -2 -4 -0 7 2 -6 -3 0 -4 -5 -0 -1 -5 -2 6 -1 -3 1 5 7 -4 16 -7 -8 -2 11
-1 1 -2 -0 -2 -3 3 4 -1 -2 -1 1 1 1 1 -0 -0 1 2 3 1 -3 0 -3 -1 -0 -4 0 -2 -2 1 -0 1 -2 -1 -0 -2 3 12 -1 -6 -1 5 -5
-9 -2 0 -0 -1 -1 1 -1 -2 -4 0 0 -1 -1 -1 -1 -0 0 -0 -2 -2 -1 -3 -5 -3 -3 -2 -0 -1 -2 -1 -0 -2 -2 -1 3 1 -1 7 -1 4 -1 -11 -3
-1 -0 -1 -1 -3 0 0 -2 -3 -1 3 0 0 0 0 -1 -1 -0 -2 -2 -2 -4 -3 -1 -0 -1 -2 -2 -2 -3 -2 -2 -2 -2 -3 1 1 -3 -4 -0 5 -4 -1 2
-3 -1 -1 -0 0 1 -1 0 2 1 2 0 -3 -2 0 -1 -3 -1 -1 -1 -1 -2 -1 -1 -1 -1 -1 -2 -2 -3 -2 -1 -2 -1 -2 -3 -2 2 -2 -1 3 1 -2 0
-0 -2 -1 0 -0 0 0 1 1 -0 -3 1 1 -2 -1 -1 -3 -2 0 2 1 0 -2 -2 -2 -1 -0 -0 -1 -1 -2 -2 -1 -1 -2 -2 -2 -5 -4 -3 -1 1 3 2
Height
3033 3033 3027 3029 3030 3030 3031 3030 3026 3025 3025 3032 3029 3024 3023 3030 3032 3033 3037 3040 3044 3048 3055 3059 3062 3065 3066 3069 3069 3070 3073 3078 3081 3082 3086 3090 3093 3097 3098 3099 3100 3101 3102 3103
3024 3019 3021 3024 3025 3023 3024 3024 3019 3019 3019 3026 3023 3015 3014 3019 3020 3024 3029 3033 3036 3040 3046 3051 3055 3058 3059 3061 3059 3062 3066 3070 3072 3075 3079 3082 3086 3090 3093 3094 3095 3096 3097 3098
3017 3010 3014 3017 3016 3017 3017 3016 3014 3013 3016 3018 3019 3007 3007 3008 3010 3014 3020 3024 3030 3034 3040 3043 3043 3045 3046 3047 3051 3054 3057 3062 3065 3068 3070 3073 3078 3080 3082 3088 3089 3092 3092 3093
3007 3005 3006 3008 3009 3013 3010 3008 3011 3010 3015 3014 3013 3006 3001 3002 3001 3007 3013 3017 3021 3025 3029 3033 3034 3037 3039 3041 3043 3046 3049 3052 3056 3059 3062 3065 3068 3072 3078 3082 3085 3087 3087 3088
2994 2999 3002 3001 2999 3007 3002 3006 3007 3008 3010 3011 3008 3012 2989 2997 2996 3001 3009 3009 3011 3014 3018 3022 3027 3030 3033 3036 3039 3040 3043 3046 3047 3049 3055 3059 3061 3067 3071 3074 3077 3079 3080 3082
2990 2992 2991 2990 2995 3000 3003 3001 3001 3002 3004 3004 3001 3006 2993 2995 2993 2997 2998 3005 3006 3008 3010 3014 3019 3023 3027 3031 3033 3034 3036 3039 3041 3043 3045 3044 3051 3059 3061 3065 3068 3070 3071 3074
2988 2984 2981 2985 2989 2994 2996 2998 3000 3003 3001 2998 2996 3000 2994 2993 2989 2987 2991 2996 3000 3002 3005 3009 3013 3017 3021 3025 3027 3028 3031 3032 3034 3037 3040 3042 3045 3049 3053 3057 3059 3061 3063 3066
2985 2982 2980 2982 2987 2989 2990 2993 2995 2999 2997 2993 2993 2995 2996 2995 2987 2986 2985 2988 2992 2996 3002 3006 3009 3013 3016 3019 3021 3023 3025 3027 3027 3028 3032 3036 3038 3040 3044 3048 3053 3053 3055 3059
2986 2983 2984 2985 2986 2988 2985 2987 2990 2991 2990 2990 2989 2992 2991 2989 2984 2984 2988 2990 2991 2994 2999 3001 3004 3007 3010 3012 3013 3014 3016 3018 3019 3020 3021 3026 3029 3031 3035 3041 3046 3047 3048 3050
2988 2984 2981 2983 2983 2983 2980 2986 2989 2990 2992 2993 2985 2992 2995 2990 2987 2987 2991 2988 2990 2992 2995 2996 2999 3001 3003 3005 3005 3005 3005 3005 3006 3009 3013 3015 3020 3023 3027 3032 3037 3040 3041 3042
2989 2988 2982 2982 2979 2979 2980 2982 2984 2988 2989 2991 2985 3000 2997 2993 2992 2990 2987 2981 2987 2990 2993 2992 2994 2996 2998 2999 2998 2997 2996 2997 2997 3000 3005 3008 3011 3012 3017 3022 3027 3031 3032 3034
2990 2985 2975 2975 2975 2977 2977 2979 2981 2985 2990 2988 2992 3003 2997 2994 2992 2990 2984 2981 2986 2990 2989 2989 2991 2992 2992 2992 2993 2990 2990 2991 2991 2993 2997 3000 3002 3004 3006 3011 3017 3021 3023 3025
2990 2984 2980 2975 2978 2976 2977 2978 2981 2984 2987 2984 2985 3003 2998 2995 2992 2993 2990 2988 2986 2991 2991 2986 2990 2990 2989 2987 2987 2986 2985 2985 2987 2988 2990 2992 2994 2996 2998 3003 3008 3011 3014 3017
2990 2987 2984 2981 2979 2977 2975 2977 2980 2984 2988 2989 2995 3003 3000 2999 2998 2994 2990 2992 2994 2993 2987 2987 2987 2986 2984 2982 2982 2979 2979 2981 2982 2983 2986 2988 2990 2992 2994 2998 3001 3004 3006 3010
2990 2986 2980 2974 2977 2975 2972 2972 2973 2982 2990 2994 2998 2998 2999 2997 2993 2993 2995 2994 2990 2988 2988 2985 2985 2983 2981 2979 2977 2974 2975 2976 2977 2978 2979 2981 2984 2986 2988 2992 2995 2997 2998 3002
2992 2988 2984 2983 2980 2980 2979 2977 2980 2987 2995 2997 2999 2999 2999 2997 2997 2997 2994 2992 2990 2991 2988 2989 2987 2984 2982 2979 2976 2974 2972 2972 2972 2974 2974 2976 2975 2979 2981 2984 2986 2990 2992 2996
2994 2991 2989 2990 2987 2986 2986 2995 2993 2995 2998 3001 3000 3001 3001 3001 2999 2996 2994 2994 2996 2993 2993 2991 2988 2984 2981 2978 2976 2974 2972 2972 2970 2969 2969 2971 2972 2973 2974 2977 2978 2983 2986 2986
2997 2994 2993 2992 2992 2997 3006 3004 3003 3001 3004 3004 3004 3004 3004 3002 3000 2999 3000 3000 2997 2996 2995 2993 2991 2988 2986 2984 2983 2979 2976 2973 2970 2968 2965 2966 2968 2969 2970 2970 2973 2975 2977 2980
2997 2995 2996 2994 2996 3004 3004 3005 3005 3006 3008 3008 3007 3006 3005 3004 3003 3003 3002 3001 3000 2998 2997 2996 2993 2991 2989 2988 2986 2983 2980 2976 2973 2970 2967 2964 2964 2965 2964 2964 2962 2965 2962 2968
3001 2997 2997 2997 3000 3006 3008 3005 3004 3004 3008 3009 3009 3007 3007 3006 3006 3003 3003 3002 3001 2999 2997 2995 2994 2993 2991 2991 2988 2986 2983 2981 2977 2972 2968 2966 2964 2963 2961 2957 2958 2957 2958 2960
3001 3000 3000 3000 3003 3008 3006 3005 3006 3008 3018 3011 3010 3008 3007 3007 3005 3004 3003 3002 3001 2999 2998 2997 2996 2995 2993 2992 2990 2987 2984 2982 2978 2976 2973 2970 2967 2964 2962 2957 2954 2958 2958 2952
3006 3006 3004 3005 3006 3011 3007 3008 3009 3013 3012 3012 3011 3010 3009 3007 3006 3005 3004 3003 3002 3001 3000 2999 2997 2995 2994 2992 2990 2987 2985 2982 2980 2977 2974 2972 2969 2965 2962 2961 2961 2959 2958 2956
3013 3013 3010 3011 3013 3013 3012 3010 3012 3013 3014 3014 3013 3012 3011 3010 3010 3009 3008 3007 3006 3004 3002 3000 2999 2996 2995 2992 2990 2988 2986 2983 2980 2978 2976 2973 2970 2967 2963 2961 2962 2960 2961 2961
3015 3014 3013 3015 3015 3014 3013 3013 3014 3014 3015 3014 3014 3013 3013 3013 3011 3010 3009 3008 3007 3005 3004 3002 2999 2997 2994 2992 2990 2988 2985 2983 2980 2978 2975 2973 2971 2969 2967 2964 2961 2959 2959 2959
3016 3015 3014 3014 3014 3014 3014 3014 3014 3014 3015 3015 3014 3014 3013 3012 3011 3010 3009 3007 3005 3004 3002 3000 2998 2996 2994 2991 2989 2986 2984 2981 2978 2976 2974 2973 2970 2968 2965 2963 2961 2959 2958 2957
3016 3016 3015 3015 3014 3014 3014 3014 3014 3014 3014 3015 3015 3015 3014 3012 3011 3009 3007 3006 3005 3002 3000 2998 2996 2994 2991 2989 2986 2984 2982 2979 2976 2973 2971 2969 2967 2965 2964 2962 2960 2958 2956 2955